Tracking 17938 objects as of 23-February-2017
HD Live streaming from Space Station
objects crossing your sky now

METEOR 2-6 DEB

Track METEOR 2-6 DEB now!
10-day predictions


NORAD ID: 31406
Int'l Code: 1980-073H
Perigee: 794.2 km
Apogee: 857.5 km
Inclination: 81.2 °
Period: 101.3 minutes
Semi major axis: 7196 km
RCS: 0.0145 m2 (small)
Launch date: September 9, 1980
Source: Commonwealth of Independent States (former USSR) (CIS)
Launch site: PLESETSK MISSILE AND SPACE COMPLEX (PKMTR)

Note: This is SATELLITE DEBRIS
Your satellite tracking list
Your tracking list is empty





NASA's NSSDC Master Catalog

Two Line Element Set (TLE):
1 31406U 80073H   17027.35743246  .00001532  00000-0  68159-3 0  9996
2 31406  81.2221 169.4700 0043981  40.9266 319.5198 14.21960107527563
Source of the keplerian elements: AFSPC